Station Historical Data
 
Daily Summary for November 21, 2017 Units:  English    Metric   Both
« Previous Day
Next Day »
Daily Weekly Monthly Yearly Custom
  Current: High: Low: Average:
Temperature: 53.7 °F 53.7 °F 38.2 °F 42.6 °F
Dew Point: 29.9 °F 30.3 °F 23.6 °F 25.5 °F
Humidity: 40% 62% 39% 51%
Wind Speed: 15.0mph 18.0mph 2.0mph 6.9mph
Wind Gust: 21.0mph 28.0mph - -
WindWSW - - SSW
Pressure: 29.74 in 29.90 in 29.73 in -
Precipitation: 0.00 in      
Historical Graphs
 
 
Tabular Data for November 21, 2017
Time Temperature Dew Point Pressure Wind Wind Speed Wind Gust Humidity Rainfall Rate (Hourly)
00:04 38.6 °F 26.3 °F 29.90 in SW 5.0 mph 11.0 mph 61% 0.00 in
00:09 38.5 °F 26.2 °F 29.90 in SSW 5.0 mph 8.0 mph 61% 0.00 in
00:24 38.2 °F 26.3 °F 29.90 in SSW 4.0 mph 8.0 mph 62% 0.00 in
00:34 38.3 °F 26.4 °F 29.90 in SSW 5.0 mph 12.0 mph 62% 0.00 in
00:44 38.3 °F 26.0 °F 29.90 in SW 4.0 mph 7.0 mph 61% 0.00 in
00:49 38.3 °F 26.0 °F 29.90 in SSW 5.0 mph 9.0 mph 61% 0.00 in
00:54 38.3 °F 26.0 °F 29.90 in SSW 4.0 mph 13.0 mph 61% 0.00 in
00:59 38.4 °F 26.1 °F 29.90 in SSW 5.0 mph 13.0 mph 61% 0.00 in
01:04 38.5 °F 26.2 °F 29.89 in SW 5.0 mph 9.0 mph 61% 0.00 in
01:14 38.4 °F 26.1 °F 29.89 in SW 3.0 mph 10.0 mph 61% 0.00 in
01:19 38.3 °F 25.6 °F 29.89 in South 3.0 mph 10.0 mph 60% 0.00 in
01:24 38.3 °F 25.6 °F 29.89 in South 3.0 mph 8.0 mph 60% 0.00 in
01:29 38.4 °F 25.7 °F 29.89 in SSW 5.0 mph 11.0 mph 60% 0.00 in
01:34 38.6 °F 25.9 °F 29.89 in SSW 5.0 mph 12.0 mph 60% 0.00 in
01:39 38.8 °F 25.7 °F 29.89 in SSW 6.0 mph 12.0 mph 59% 0.00 in
01:44 38.8 °F 25.7 °F 29.88 in SSW 6.0 mph 13.0 mph 59% 0.00 in
01:54 39.0 °F 25.5 °F 29.88 in SSW 8.0 mph 12.0 mph 58% 0.00 in
01:59 39.0 °F 25.5 °F 29.88 in SSW 6.0 mph 13.0 mph 58% 0.00 in
02:04 39.1 °F 25.6 °F 29.88 in SSW 7.0 mph 14.0 mph 58% 0.00 in
02:09 39.1 °F 25.1 °F 29.88 in SSW 6.0 mph 14.0 mph 57% 0.00 in
02:14 39.0 °F 25.0 °F 29.88 in SSW 6.0 mph 13.0 mph 57% 0.00 in
02:24 39.1 °F 25.1 °F 29.88 in South 5.0 mph 11.0 mph 57% 0.00 in
02:34 39.1 °F 25.1 °F 29.88 in SSW 5.0 mph 11.0 mph 57% 0.00 in
02:39 39.2 °F 24.8 °F 29.88 in SSW 4.0 mph 11.0 mph 56% 0.00 in
02:44 39.1 °F 24.7 °F 29.88 in SSW 4.0 mph 9.0 mph 56% 0.00 in
02:54 39.1 °F 24.7 °F 29.88 in SSW 5.0 mph 12.0 mph 56% 0.00 in
02:59 39.0 °F 24.6 °F 29.88 in SSW 4.0 mph 8.0 mph 56% 0.00 in
03:04 39.0 °F 24.6 °F 29.87 in SSW 4.0 mph 12.0 mph 56% 0.00 in
03:09 39.1 °F 24.7 °F 29.87 in SSW 5.0 mph 12.0 mph 56% 0.00 in
03:14 39.1 °F 24.7 °F 29.87 in South 4.0 mph 13.0 mph 56% 0.00 in
03:19 39.2 °F 24.8 °F 29.86 in South 6.0 mph 12.0 mph 56% 0.00 in
03:24 39.1 °F 24.3 °F 29.86 in South 4.0 mph 13.0 mph 55% 0.00 in
03:29 39.2 °F 24.4 °F 29.86 in SW 3.0 mph 15.0 mph 55% 0.00 in
03:39 39.2 °F 24.4 °F 29.85 in SSW 6.0 mph 13.0 mph 55% 0.00 in
03:44 39.3 °F 24.5 °F 29.85 in SSW 6.0 mph 12.0 mph 55% 0.00 in
03:49 39.3 °F 24.0 °F 29.85 in SSW 6.0 mph 12.0 mph 54% 0.00 in
03:59 39.3 °F 24.0 °F 29.85 in SSW 7.0 mph 9.0 mph 54% 0.00 in
04:04 39.4 °F 24.1 °F 29.85 in SSW 3.0 mph 10.0 mph 54% 0.00 in
04:09 39.3 °F 24.0 °F 29.85 in South 6.0 mph 12.0 mph 54% 0.00 in
04:14 39.1 °F 23.8 °F 29.85 in SSW 4.0 mph 12.0 mph 54% 0.00 in
04:19 39.2 °F 23.9 °F 29.84 in SSW 5.0 mph 12.0 mph 54% 0.00 in
04:24 39.3 °F 23.6 °F 29.84 in SSW 6.0 mph 12.0 mph 53% 0.00 in
04:29 39.5 °F 23.8 °F 29.84 in SSW 6.0 mph 11.0 mph 53% 0.00 in
04:34 39.4 °F 23.7 °F 29.84 in SSW 5.0 mph 12.0 mph 53% 0.00 in
04:39 39.4 °F 23.7 °F 29.84 in SSW 4.0 mph 13.0 mph 53% 0.00 in
04:44 39.5 °F 23.8 °F 29.84 in SSW 9.0 mph 12.0 mph 53% 0.00 in
04:49 39.6 °F 23.9 °F 29.84 in SSW 4.0 mph 11.0 mph 53% 0.00 in
04:54 39.7 °F 24.0 °F 29.84 in SSW 2.0 mph 11.0 mph 53% 0.00 in
04:59 39.8 °F 24.0 °F 29.84 in SSW 7.0 mph 14.0 mph 53% 0.00 in
05:04 39.8 °F 23.6 °F 29.84 in South 5.0 mph 10.0 mph 52% 0.00 in
05:14 40.1 °F 23.9 °F 29.84 in SSE 4.0 mph 14.0 mph 52% 0.00 in
05:19 40.2 °F 24.0 °F 29.84 in SSW 4.0 mph 16.0 mph 52% 0.00 in
05:29 40.3 °F 23.6 °F 29.83 in SSW 6.0 mph 14.0 mph 51% 0.00 in
05:44 40.5 °F 23.8 °F 29.83 in SSW 6.0 mph 13.0 mph 51% 0.00 in
05:59 40.8 °F 24.1 °F 29.82 in SSW 7.0 mph 16.0 mph 51% 0.00 in
06:09 40.9 °F 24.1 °F 29.82 in SSW 6.0 mph 13.0 mph 51% 0.00 in
06:14 40.9 °F 24.1 °F 29.82 in SSW 7.0 mph 15.0 mph 51% 0.00 in
06:24 40.7 °F 24.0 °F 29.82 in WSW 12.0 mph 12.0 mph 51% 0.00 in
06:29 40.8 °F 24.1 °F 29.82 in SSW 7.0 mph 14.0 mph 51% 0.00 in
06:34 40.8 °F 24.1 °F 29.82 in SSW 7.0 mph 14.0 mph 51% 0.00 in
06:39 40.7 °F 24.0 °F 29.81 in SSW 6.0 mph 14.0 mph 51% 0.00 in
06:44 40.8 °F 24.1 °F 29.81 in SSW 7.0 mph 14.0 mph 51% 0.00 in
06:49 40.7 °F 24.0 °F 29.81 in SSW 8.0 mph 15.0 mph 51% 0.00 in
06:59 40.7 °F 24.0 °F 29.81 in South 10.0 mph 14.0 mph 51% 0.00 in
07:14 40.7 °F 24.0 °F 29.80 in South 11.0 mph 17.0 mph 51% 0.00 in
07:19 40.8 °F 24.1 °F 29.80 in SSW 9.0 mph 16.0 mph 51% 0.00 in
07:24 40.8 °F 24.1 °F 29.80 in SW 7.0 mph 15.0 mph 51% 0.00 in
07:29 40.8 °F 24.1 °F 29.80 in SSW 8.0 mph 15.0 mph 51% 0.00 in
07:39 40.7 °F 24.0 °F 29.80 in South 7.0 mph 18.0 mph 51% 0.00 in
07:44 40.9 °F 24.1 °F 29.80 in SSW 6.0 mph 15.0 mph 51% 0.00 in
07:54 41.0 °F 24.2 °F 29.79 in SSW 7.0 mph 13.0 mph 51% 0.00 in
08:04 41.2 °F 24.4 °F 29.79 in South 9.0 mph 15.0 mph 51% 0.00 in
08:14 41.6 °F 24.8 °F 29.79 in South 3.0 mph 13.0 mph 51% 0.00 in
08:19 41.9 °F 24.6 °F 29.79 in SW 8.0 mph 13.0 mph 50% 0.00 in
08:24 42.4 °F 24.6 °F 29.79 in SSW 5.0 mph 15.0 mph 49% 0.00 in
08:29 42.7 °F 24.4 °F 29.79 in South 6.0 mph 17.0 mph 48% 0.00 in
08:34 42.9 °F 25.0 °F 29.79 in SW 7.0 mph 14.0 mph 49% 0.00 in
08:39 43.1 °F 24.7 °F 29.78 in SSW 6.0 mph 21.0 mph 48% 0.00 in
08:49 43.7 °F 24.8 °F 29.78 in SSW 7.0 mph 15.0 mph 47% 0.00 in
08:59 44.3 °F 25.3 °F 29.78 in WSW 9.0 mph 16.0 mph 47% 0.00 in
09:04 44.5 °F 25.0 °F 29.78 in South 9.0 mph 17.0 mph 46% 0.00 in
09:09 44.8 °F 25.8 °F 29.77 in SSW 6.0 mph 23.0 mph 47% 0.00 in
09:14 45.1 °F 25.5 °F 29.77 in SSW 8.0 mph 23.0 mph 46% 0.00 in
09:19 45.4 °F 25.3 °F 29.76 in SSW 8.0 mph 19.0 mph 45% 0.00 in
09:24 45.8 °F 26.2 °F 29.76 in SSW 9.0 mph 20.0 mph 46% 0.00 in
09:29 46.2 °F 26.0 °F 29.76 in SSW 8.0 mph 20.0 mph 45% 0.00 in
09:34 46.5 °F 26.3 °F 29.77 in SW 13.0 mph 16.0 mph 45% 0.00 in
09:39 46.6 °F 25.8 °F 29.77 in SW 12.0 mph 16.0 mph 44% 0.00 in
09:44 47.2 °F 26.9 °F 29.77 in SSW 8.0 mph 16.0 mph 45% 0.00 in
09:49 47.4 °F 26.6 °F 29.77 in WSW 7.0 mph 18.0 mph 44% 0.00 in
10:04 48.2 °F 27.3 °F 29.76 in SSW 13.0 mph 20.0 mph 44% 0.00 in
10:09 48.5 °F 27.6 °F 29.77 in SSE 7.0 mph 20.0 mph 44% 0.00 in
10:24 49.4 °F 27.8 °F 29.77 in SSW 8.0 mph 16.0 mph 43% 0.00 in
10:29 49.6 °F 28.0 °F 29.77 in SSW 9.0 mph 21.0 mph 43% 0.00 in
10:34 49.4 °F 27.2 °F 29.77 in SSW 8.0 mph 15.0 mph 42% 0.00 in
10:39 49.6 °F 27.4 °F 29.77 in SSW 17.0 mph 26.0 mph 42% 0.00 in
10:44 49.7 °F 27.5 °F 29.77 in SSW 14.0 mph 19.0 mph 42% 0.00 in
10:54 50.5 °F 28.2 °F 29.77 in SW 8.0 mph 17.0 mph 42% 0.00 in
11:04 50.9 °F 28.6 °F 29.77 in SW 10.0 mph 22.0 mph 42% 0.00 in
11:09 51.2 °F 28.9 °F 29.77 in SSE 10.0 mph 21.0 mph 42% 0.00 in
11:14 51.5 °F 29.7 °F 29.76 in SSW 9.0 mph 21.0 mph 43% 0.00 in
11:19 51.7 °F 29.3 °F 29.76 in SW 9.0 mph 21.0 mph 42% 0.00 in
11:34 51.8 °F 29.4 °F 29.75 in South 18.0 mph 22.0 mph 42% 0.00 in
11:39 52.2 °F 28.6 °F 29.75 in SW 6.0 mph 24.0 mph 40% 0.00 in
11:44 52.2 °F 29.8 °F 29.75 in SW 4.0 mph 16.0 mph 42% 0.00 in
11:49 52.4 °F 29.4 °F 29.74 in SSW 8.0 mph 20.0 mph 41% 0.00 in
11:54 52.9 °F 29.2 °F 29.74 in SW 10.0 mph 23.0 mph 40% 0.00 in
12:04 53.3 °F 29.6 °F 29.74 in SW 13.0 mph 24.0 mph 40% 0.00 in
12:09 53.4 °F 30.3 °F 29.74 in SW 13.0 mph 28.0 mph 41% 0.00 in
12:19 53.7 °F 29.3 °F 29.73 in SW 11.0 mph 23.0 mph 39% 0.00 in
12:24 53.7 °F 29.9 °F 29.74 in WSW 15.0 mph 21.0 mph 40% 0.00 in
Buffalo, New York, USA
Compliments of Weather Underground - 1.5 mb